Sheridan, WY

4:43 PM MDT on June 23, 2017 (GMT -0600)
Sheridan County

Weather History for KSHR - October, 2014

Change the Weather History Date:

Friday, October 3, 2014

  Actual Average Record
Temperature  
Mean Temperature 39 °F 50 °F  
Max Temperature 58 °F 65 °F 89 °F (1992)
Min Temperature 20 °F 35 °F 20 °F (2014)
Degree Days  
Heating Degree Days 26 15  
Month to date heating degree days 66 43  
Since 1 July heating degree days 346 346  
Cooling Degree Days 0 0  
Month to date cooling degree days 0 0  
Year to date cooling degree days 346 418  
Moisture  
Dew Point 25 °F    
Average Humidity 61    
Maximum Humidity 92    
Minimum Humidity 30    
Precipitation  
Precipitation 0.00 in 0.06 in 1.16 in (1908)
Month to date precipitation 0.04 0.18  
Year to date precipitation 12.74 11.66  
Sea Level Pressure  
Sea Level Pressure 30.38 in    
Wind  
Wind Speed 6 mph (West)    
Max Wind Speed 21 mph    
Max Gust Speed 25 mph    
Visibility 10 miles    
Events      
T = Trace of Precipitation, MM = Missing Value Source: NWS Daily Summary

Daily Weather History Graph

Daily Weather History Graph

Search for Another Location

Airport or City:

Trip Planner

Search our weather history database for the weather conditions in past years. The results will help you decide how hot, cold, wet, or windy it might be!

Date:

Astronomy

Oct. 03, 2014 Rise Set
Actual Time 7:08 AM MDT 6:44 PM MDT
Civil Twilight 6:39 AM MDT 7:13 PM MDT
Nautical Twilight 6:05 AM MDT 7:47 PM MDT
Astronomical Twilight 5:31 AM MDT 8:21 PM MDT
Moon 3:51 PM MDT (10/3) 1:19 AM MDT (10/3)
Length of Visible Light 12h 34m
Length of Day
11h 36m
Waxing Gibbous, 71% of the Moon is Illuminated
Oct 3
Waxing Gibbous
Oct 8
Full
Oct 15
Last Quarter
Oct 23
New
Oct 30
First Quarter

Hourly Weather History & Observations

Time (MDT) Temp. Windchill Dew Point Humidity Pressure Visibility Wind Dir Wind Speed Gust Speed Precip Events Conditions
12:10 AM 33.1 °F 27.7 °F 28.0 °F 82% 30.40 in 10.0 mi West 5.8 mph - N/A   Mostly Cloudy
12:24 AM 30.9 °F 24.3 °F 27.0 °F 85% 30.40 in 10.0 mi West 6.9 mph - N/A   Scattered Clouds
12:53 AM 28.9 °F 19.8 °F 26.1 °F 89% 30.44 in 10.0 mi West 10.4 mph - N/A   Clear
1:53 AM 28.9 °F - 24.1 °F 82% 30.46 in 10.0 mi Calm Calm - N/A   Clear
2:53 AM 26.1 °F 21.9 °F 21.9 °F 84% 30.48 in 10.0 mi WNW 3.5 mph - N/A   Clear
3:53 AM 23.0 °F - 19.9 °F 88% 30.49 in 10.0 mi Calm Calm - N/A   Clear
4:53 AM 21.9 °F 15.7 °F 19.0 °F 89% 30.50 in 10.0 mi SSW 4.6 mph - N/A   Clear
5:53 AM 21.9 °F 14.5 °F 18.0 °F 85% 30.50 in 10.0 mi South 5.8 mph - N/A   Clear
6:53 AM 21.9 °F - 17.1 °F 82% 30.50 in 10.0 mi Calm Calm - N/A   Clear
7:53 AM 24.1 °F 19.7 °F 19.9 °F 84% 30.50 in 10.0 mi SSW 3.5 mph - N/A   Clear
8:53 AM 32.0 °F 28.7 °F 26.1 °F 79% 30.48 in 10.0 mi East 3.5 mph - N/A   Clear
9:53 AM 39.9 °F 32.9 °F 27.0 °F 60% 30.46 in 10.0 mi NW 11.5 mph - N/A   Clear
10:53 AM 43.0 °F 37.7 °F 25.0 °F 49% 30.42 in 10.0 mi NW 9.2 mph - N/A   Clear
11:53 AM 48.9 °F - 27.0 °F 43% 30.38 in 10.0 mi North - - N/A   Clear
12:53 PM 51.1 °F - 26.1 °F 38% 30.37 in 10.0 mi NW 9.2 mph - N/A   Clear
1:53 PM 53.1 °F - 30.0 °F 41% 30.35 in 10.0 mi WNW 15.0 mph - N/A   Clear
2:53 PM 55.9 °F - 28.9 °F 36% 30.31 in 10.0 mi NW 19.6 mph 23.0 mph N/A   Clear
3:53 PM 55.9 °F - 28.0 °F 34% 30.31 in 10.0 mi WNW 13.8 mph - N/A   Clear
4:53 PM 57.0 °F - 26.1 °F 30% 30.30 in 10.0 mi NW 13.8 mph - N/A   Clear
5:53 PM 51.1 °F - 27.0 °F 39% 30.29 in 10.0 mi NNW 11.5 mph - N/A   Clear
6:53 PM 48.9 °F - 28.9 °F 46% 30.29 in 10.0 mi East 3.5 mph - N/A   Clear
7:53 PM 37.0 °F 33.3 °F 28.9 °F 73% 30.32 in 10.0 mi SSW 4.6 mph - N/A   Clear
8:53 PM 35.1 °F 28.6 °F 28.0 °F 76% 30.29 in 10.0 mi SSW 8.1 mph - N/A   Clear
9:53 PM 35.1 °F - 28.0 °F 76% 30.25 in 10.0 mi Calm Calm - N/A   Clear
10:53 PM 34.0 °F - 28.9 °F 82% 30.23 in 10.0 mi Calm Calm - N/A   Clear
11:53 PM 34.0 °F - 28.0 °F 79% 30.19 in 10.0 mi Calm Calm - N/A   Clear